Notices

What's New in latest Release from April 7th, 2021:

- Updated Glossary, including Speed of Maximum Gust, and Total Hourly Precipitation

- Updated national and regional climate services offices contacts and prices information

- Addition of station inventory lists for 1981-2010, 1971-2000, and 1961-1990 Normals.

If you haven't already, please take our survey and provide feedback about our website: https://eccc.sondage-survey.ca/f/LanguageSelection.aspx?s=442ca660-fcf1-47c0-95a9-59707d6fd709

Hourly Data Report for November 11, 2019

VICTORIA UNIVERSITY CS
BRITISH COLUMBIA
Current Station Operator: ECCC - MSC

48°27'25.200" N
123°18'16.600" W
60.10 m
1018598
71783
WYJ

Download Data

Hourly Data (November 2019)
Hourly Data Report for November 11, 2019
TIME
LST
Temp Definition
°C
Dew Point Definition
°C
Rel Hum Definition
%
Precip. Amount Definition
mm

Wind Dir Definition
10's deg

Wind Spd Definition
km/h
Visibility Definition
km
Stn Press Definition
kPa
Hmdx Definition


Wind Chill Definition


Weather Definition


00:00 9.7 6.2 79 0.0 1 10   102.00     LegendNANA
01:00 9.4 5.3 76 0.0 1 10   101.99     LegendNANA
02:00 8.8 4.4 74 0.0 36 8   101.98     LegendNANA
03:00 8.3 3.9 74 0.0 36 6   101.96     LegendNANA
04:00 8.4 5.2 80 0.0 34 8   101.95     LegendNANA
05:00 8.4 4.3 75 0.0 35 7   101.96     LegendNANA
06:00 8.5 3.1 69 0.0 36 9   101.94     LegendNANA
07:00 8.5 2.6 66 0.0 1 9   101.93     LegendNANA
08:00 8.5 4.2 74 0.0 1 11   101.90     LegendNANA
09:00 8.8 3.0 67 0.0 36 11   101.90     LegendNANA
10:00 9.0 2.9 66 0.0 35 12   101.88     LegendNANA
11:00 9.4 2.7 63 0.0 36 12   101.86     LegendNANA
12:00 9.9 4.8 71 0.3 1 8   101.76     LegendNANA
13:00 9.6 2.7 62 0.0 35 10   101.70     LegendNANA
14:00 9.9 2.4 59 0.0 35 9   101.66     LegendNANA
15:00 9.9 2.3 59 0.0 36 10   101.63     LegendNANA
16:00 9.6 3.6 66 0.0 35 9   101.57     LegendNANA
17:00 9.4 3.6 67 0.0 36 8   101.53     LegendNANA
18:00 9.1 3.3 67 0.0 34 9   101.45     LegendNANA
19:00 9.2 4.0 70 0.0 33 8   101.38     LegendNANA
20:00 9.2 3.4 67 0.0 35 9   101.31     LegendNANA
21:00 9.4 3.6 67 0.0 33 10   101.33     LegendNANA
22:00 9.9 3.5 65 0.0 35 11   101.34     LegendNANA
23:00 8.8 4.7 76 0.0 36 11   101.29     LegendNANA

Notes on Data Quality.

Legend

  • E = Estimated
  • M = Missing
  • NA = Not Available*
  • [empty] = Indicates an unobserved value
Date modified: